C/2016 R2 ( PanSTARRS )

Japanese version
Home page
Updated on May 22, 2017

---------------------------------------------------------------------

* Profile

Discovery Date September 7, 2016
Magnitude 19.1 mag
Discoverer Pan-STARRS 1 telescope (Haleakala)

* Pictures

* Orbital Elements

Epoch 2018 May 2.0 TT = JDT 2458240.5
T 2018 May  9.59804 TT                                  MPCW
q   2.6023882            (2000.0)            P               Q
z  +0.0014185      Peri.   33.19304     -0.14728295     -0.52443134
 +/-0.0000059      Node    80.56927     +0.61561551     -0.71222485
e   0.9963084      Incl.   58.22334     +0.77416101     +0.46659140
From 169 observations 2016 Aug. 30-2017 Mar. 16, mean residual 0".5.

* Finding Charts

* Magnitudes Graph

        m1 = 4.0 + 5 log d + 10.0 log r

---------------------------------------------------------------------

The orbital elements are published on M.P.E.C. 2017-J52.
The charts are made with StellaNavigator Ver.10 (AstroArts).
The magnitudes graphs are made with Comet for Windows.

---------------------------------------------------------------------

Copyright(C) Seiichi Yoshida (comet@aerith.net). All rights reserved.